Graham, TX

6:25 AM CDT on April 23, 2017 (GMT -0500)
Graham

Weather History for KRPH - January, 2014

Change the Weather History Date:

Friday, January 31, 2014

  Actual Average (KMWL) Record (KMWL)
Temperature  
Mean Temperature 57 °F -  
Max Temperature 75 °F 56 °F 82 °F (1997)
Min Temperature 38 °F 33 °F 27 °F (2008)
Degree Days  
Heating Degree Days 8    
Growing Degree Days 7 (Base 50)    
Moisture  
Dew Point 37 °F    
Average Humidity 55    
Maximum Humidity 79    
Minimum Humidity 26    
Precipitation  
Precipitation 0.00 in - - ()
Sea Level Pressure  
Sea Level Pressure 29.76 in    
Wind  
Wind Speed 7 mph (WSW)    
Max Wind Speed 16 mph    
Max Gust Speed 26 mph    
Visibility 10 miles    
Events      
Averages and records for this station are not official NWS values.
T = Trace of Precipitation, MM = Missing Value Source: NWS Daily Summary

Daily Weather History Graph

Daily Weather History Graph

Search for Another Location

Airport or City:

Trip Planner

Search our weather history database for the weather conditions in past years. The results will help you decide how hot, cold, wet, or windy it might be!

Date:

Astronomy

Jan. 31, 2014 Rise Set
Actual Time 7:30 AM CST 6:05 PM CST
Civil Twilight 7:04 AM CST 6:31 PM CST
Nautical Twilight 6:34 AM CST 7:01 PM CST
Astronomical Twilight 6:05 AM CST 7:30 PM CST
Moon 7:46 AM CST (1/31) 7:24 PM CST (1/31)
Length of Visible Light 11h 27m
Length of Day
10h 35m
New Moon, 1% of the Moon is Illuminated
Jan 31
New Moon
Feb 6
First Quarter
Feb 14
Full
Feb 22
Last Quarter
Mar 1
New

Hourly Weather History & Observations

Time (CST) Temp. Windchill Dew Point Humidity Pressure Visibility Wind Dir Wind Speed Gust Speed Precip Events Conditions
12:15 AM 52.2 °F - 37.8 °F 58% 29.74 in 10.0 mi SSE 9.2 mph - N/A   Clear
12:35 AM 52.2 °F - 37.8 °F 58% 29.73 in 10.0 mi SSE 10.4 mph - N/A   Clear
12:55 AM 52.3 °F - 37.6 °F 57% 29.73 in 10.0 mi SSE 6.9 mph - N/A   Clear
1:15 AM 52.0 °F - 37.6 °F 58% 29.74 in 10.0 mi SSE 6.9 mph - N/A   Clear
1:35 AM 50.9 °F - 37.6 °F 60% 29.74 in 10.0 mi SE 5.8 mph - N/A   Clear
1:55 AM 50.5 °F - 37.6 °F 61% 29.74 in 10.0 mi SE 4.6 mph - N/A   Clear
2:15 AM 50.2 °F - 37.8 °F 62% 29.73 in 10.0 mi SSE 8.1 mph - N/A   Clear
2:35 AM 50.7 °F - 37.8 °F 61% 29.73 in 10.0 mi SSE 6.9 mph - N/A   Clear
2:55 AM 50.5 °F - 37.9 °F 62% 29.72 in 10.0 mi SSE 6.9 mph - N/A   Clear
3:15 AM 50.4 °F - 38.3 °F 63% 29.72 in 10.0 mi SSE 6.9 mph - N/A   Clear
3:35 AM 50.9 °F - 38.3 °F 62% 29.71 in 10.0 mi SSE 6.9 mph - N/A   Clear
3:55 AM 50.4 °F - 38.5 °F 64% 29.71 in 10.0 mi SSE 8.1 mph - N/A   Clear
4:15 AM 50.0 °F - 38.3 °F 64% 29.71 in 10.0 mi SE 5.8 mph - N/A   Clear
4:35 AM 48.4 °F - 38.3 °F 68% 29.72 in 10.0 mi SE 3.5 mph - N/A   Clear
4:55 AM 47.3 °F - 38.3 °F 71% 29.72 in 10.0 mi SSE 4.6 mph - N/A   Clear
5:15 AM 46.6 °F - 38.3 °F 73% 29.73 in 10.0 mi SE 3.5 mph - N/A   Clear
5:35 AM 45.7 °F 44.4 °F 38.3 °F 75% 29.73 in 10.0 mi SE 3.5 mph - N/A   Clear
5:55 AM 45.7 °F 44.4 °F 38.3 °F 75% 29.74 in 10.0 mi SSE 3.5 mph - N/A   Clear
6:15 AM 45.5 °F - 38.5 °F 76% 29.75 in 10.0 mi Calm Calm - N/A   Clear
6:35 AM 45.7 °F - 38.5 °F 76% 29.76 in 10.0 mi Calm Calm - N/A   Clear
6:55 AM 44.4 °F 42.9 °F 38.3 °F 79% 29.76 in 10.0 mi SE 3.5 mph - N/A   Clear
7:15 AM 45.5 °F 44.2 °F 38.7 °F 77% 29.77 in 10.0 mi SSE 3.5 mph - N/A   Clear
7:35 AM 47.1 °F - 39.2 °F 74% 29.77 in 10.0 mi SSE 5.8 mph - N/A   Clear
7:55 AM 48.9 °F - 39.6 °F 70% 29.77 in 10.0 mi South 5.8 mph - N/A   Clear
8:15 AM 51.8 °F - 40.3 °F 65% 29.79 in 10.0 mi South 6.9 mph - N/A   Clear
8:35 AM 53.1 °F - 40.3 °F 62% 29.79 in 10.0 mi South 8.1 mph - N/A   Clear
8:55 AM 54.5 °F - 40.6 °F 60% 29.79 in 10.0 mi South 5.8 mph - N/A   Clear
9:15 AM 55.4 °F - 41.0 °F 58% 29.80 in 10.0 mi South 6.9 mph - N/A   Clear
9:35 AM 58.1 °F - 41.5 °F 54% 29.80 in 10.0 mi South 5.8 mph - N/A   Clear
9:55 AM 59.4 °F - 41.7 °F 52% 29.81 in 10.0 mi South 8.1 mph - N/A   Clear
10:15 AM 59.5 °F - 41.5 °F 51% 29.81 in 10.0 mi South 8.1 mph 16.1 mph N/A   Clear
10:35 AM 61.3 °F - 41.7 °F 49% 29.81 in 10.0 mi South 9.2 mph - N/A   Clear
10:55 AM 63.9 °F - 41.9 °F 45% 29.81 in 10.0 mi SSW 9.2 mph - N/A   Clear
11:15 AM 66.6 °F - 41.7 °F 40% 29.81 in 10.0 mi SSW 5.8 mph - N/A   Clear
11:35 AM 69.4 °F - 41.0 °F 36% 29.81 in 10.0 mi SW 5.8 mph - N/A   Clear
11:55 AM 71.2 °F - 40.1 °F 32% 29.81 in 10.0 mi SW 6.9 mph - N/A   Clear
12:15 PM 73.2 °F - 39.7 °F 30% 29.80 in 10.0 mi WSW 8.1 mph - N/A   Clear
12:35 PM 74.3 °F - 39.9 °F 29% 29.79 in 10.0 mi WSW 4.6 mph - N/A   Clear
12:55 PM 74.3 °F - 39.0 °F 28% 29.78 in 10.0 mi West 10.4 mph - N/A   Clear
1:15 PM 74.5 °F - 39.0 °F 28% 29.77 in 10.0 mi NW 5.8 mph - N/A   Clear
1:35 PM 75.0 °F - 38.7 °F 27% 29.76 in 10.0 mi WNW 10.4 mph - N/A   Clear
1:55 PM 72.1 °F - 35.6 °F 26% 29.76 in 10.0 mi NNW 16.1 mph 19.6 mph N/A   Clear
2:15 PM 67.5 °F - 34.5 °F 30% 29.76 in 10.0 mi North 13.8 mph - N/A   Clear
2:35 PM 66.9 °F - 34.3 °F 30% 29.76 in 10.0 mi NNW 12.7 mph - N/A   Clear
2:55 PM 65.7 °F - 33.8 °F 31% 29.75 in 10.0 mi NNW 11.5 mph - N/A   Clear
3:15 PM 64.4 °F - 33.3 °F 31% 29.74 in 10.0 mi NNW 10.4 mph - N/A   Clear
3:35 PM 63.1 °F - 32.9 °F 32% 29.74 in 10.0 mi NNW 12.7 mph - N/A   Clear
3:55 PM 61.3 °F - 32.5 °F 34% 29.74 in 10.0 mi NNW 12.7 mph - N/A   Clear
4:15 PM 59.0 °F - 32.4 °F 37% 29.75 in 10.0 mi NNW 12.7 mph - N/A   Clear
4:35 PM 58.1 °F - 32.5 °F 38% 29.76 in 10.0 mi NNW 13.8 mph - N/A   Clear
4:55 PM 56.7 °F - 32.9 °F 41% 29.77 in 10.0 mi NNW 13.8 mph 26.5 mph N/A   Clear
5:15 PM 54.3 °F - 32.7 °F 44% 29.76 in 10.0 mi NNW 10.4 mph - N/A   Clear
5:35 PM 53.1 °F - 32.4 °F 45% 29.76 in 10.0 mi North 10.4 mph - N/A   Clear
5:55 PM 52.0 °F - 32.4 °F 47% 29.74 in 10.0 mi North 6.9 mph - N/A   Clear
6:15 PM 50.7 °F - 32.2 °F 49% 29.74 in 10.0 mi North 5.8 mph - N/A   Clear
6:35 PM 49.6 °F - 32.4 °F 51% 29.76 in 10.0 mi NNW 6.9 mph - N/A   Clear
6:55 PM 48.6 °F - 32.5 °F 54% 29.76 in 10.0 mi NNW 4.6 mph - N/A   Clear
7:15 PM 48.2 °F - 32.5 °F 55% 29.76 in 10.0 mi North 4.6 mph - N/A   Clear
7:35 PM 47.3 °F - 32.9 °F 57% 29.76 in 10.0 mi NNW 5.8 mph - N/A   Clear
7:55 PM 46.9 °F - 33.4 °F 59% 29.76 in 10.0 mi NW 6.9 mph - N/A   Clear
8:15 PM 45.5 °F 42.5 °F 34.2 °F 65% 29.76 in 10.0 mi NNW 5.8 mph - N/A   Clear
8:35 PM 44.6 °F 42.2 °F 34.2 °F 67% 29.76 in 10.0 mi NNW 4.6 mph - N/A   Clear
8:55 PM 44.6 °F 42.2 °F 33.8 °F 66% 29.76 in 10.0 mi NNW 4.6 mph - N/A   Clear
9:15 PM 43.9 °F 40.5 °F 33.8 °F 68% 29.76 in 10.0 mi NNW 5.8 mph - N/A   Clear
9:35 PM 43.2 °F 39.7 °F 33.3 °F 68% 29.76 in 10.0 mi North 5.8 mph - N/A   Clear
9:55 PM 42.6 °F 39.9 °F 32.9 °F 68% 29.76 in 10.0 mi North 4.6 mph - N/A   Clear
10:15 PM 41.9 °F 40.0 °F 32.5 °F 69% 29.76 in 10.0 mi North 3.5 mph - N/A   Clear
10:35 PM 41.0 °F - 32.4 °F 71% 29.76 in 10.0 mi Calm Calm - N/A   Clear
10:55 PM 40.5 °F 37.3 °F 32.2 °F 72% 29.76 in 10.0 mi North 4.6 mph - N/A   Clear
11:15 PM 40.1 °F 35.3 °F 32.2 °F 73% 29.76 in 10.0 mi NNW 6.9 mph - N/A   Clear
11:35 PM 39.2 °F 35.0 °F 32.0 °F 75% 29.76 in 10.0 mi NNW 5.8 mph - N/A   Clear
11:55 PM 38.3 °F 33.9 °F 32.0 °F 78% 29.77 in 10.0 mi NNW 5.8 mph - N/A   Clear